Location: ??????????
(48.4699°N, 37.9573°E)
Time: 12:20:45
(UTC+00:00)

USA 281 - Pass Details

Date: 20 January 2021
Orbit: 1072 x 1086 km, 106.0° (Epoch: 22 February)

Event Time Altitude Azimuth Distance (km) Brightness Sun altitude
Exits shadow 16:09:41 21° 40° (NE) 2,227 4.5 -19.8°
Maximum altitude 16:09:44 21° 39° (NE) 2,227 4.5 -19.8°
Drops below altitude 10° 16:14:24 10° 354° (N) 2,941 5.5 -20.5°
Sets 16:17:34 0° 339° (NNW) 3,899 6.3 -21.0°
